Regional Weather Roundup
Issued by NWS

Home | Current Version | Previous Version | Text Only | Print | Product List | Glossary Off
Versions: 1 2 3 4 5 6 7 8 9 10 11 12 13 14 15 16 17 18 19 20 21 22 23 24 25 26 27 28 29 30 31 32 33 34 35 36 37 38 39 40 41 42 43 44 45 46 47 48 49 50

000
ASUS45 KPSR 011300
RWRAZ

ARIZONA HOURLY REGIONAL WEATHER ROUNDUP
NATIONAL WEATHER SERVICE PHOENIX AZ
600 AM MST WED JUL 01 2015

NOTE: FAIR INDICATES FEW OR NO CLOUDS BELOW 12,000 FEET WITH NO
SIGNIFICANT WEATHER AND/OR OBSTRUCTIONS TO VISIBILITY.

AZZ001>003-036-011400-
NORTHWEST ARIZONA

CITY           SKY/WX    TMP DP  RH WIND       PRES   REMARKS
KINGMAN        CLEAR     74  55  51 SE5       30.04R
$$

AZZ004>008-015-016-018-011400-
NORTH CENTRAL ARIZONA

CITY           SKY/WX    TMP DP  RH WIND       PRES   REMARKS
GRAND CANYON   CLEAR     55  53  93 CALM      30.27R
WILLIAMS       CLEAR     63  54  72 S3        30.34R
PRESCOTT       CLEAR     69  58  67 SW10      30.16S
FLAGSTAFF      NOT AVBL
PAYSON         PTCLDY    68  59  73 CALM      30.19R
PAGE           PTCLDY    80  45  28 CALM      30.01R
$$

AZZ009>014-017-011400-
NORTHEAST ARIZONA

CITY           SKY/WX    TMP DP  RH WIND       PRES   REMARKS
WINSLOW        NOT AVBL
SAINT JOHNS    CLEAR     63  56  78 CALM      30.18R
WINDOW ROCK    MOCLDY    64  51  62 N5        30.28R
SHOW LOW       CLEAR     61  55  82 S12       30.25R
$$

AZZ023-011400-
GREATER PHOENIX AREA

CITY           SKY/WX    TMP DP  RH WIND       PRES   REMARKS
PHOENIX        MOCLDY    84  66  54 SE10      29.90R
GLENDALE       MOCLDY    84  68  58 SE5       29.92
LUKE AFB       PTCLDY    86  63  45 SW10      29.89R
DEER VALLEY    PTCLDY    82  67  60 SE5       29.92R
SCOTTSDALE     PTCLDY    82  66  58 SE3       29.94S
MESA-GATEWAY   PTCLDY    81  64  57 SE5       29.95R
CHANDLER       MOCLDY    82  64  54 S8        29.93
$$

AZZ027-028-011400-
SOUTHWEST MARICOPA COUNTY AND PINAL COUNTY

CITY           SKY/WX    TMP DP  RH WIND       PRES   REMARKS
CASA GRANDE    PTCLDY    79  64  61 CALM      29.94R
GILA BEND      MOCLDY    79  71  78 S7        29.90R
$$

AZZ503-504-507>509-011400-
SOUTHEAST ARIZONA

CITY           SKY/WX    TMP DP  RH WIND       PRES   REMARKS
TUCSON         PTCLDY    72  65  78 S3        30.03R
DAVIS-MONTHAN  PTCLDY    71  64  79 S3        30.02R
RYAN FIELD     CLEAR     72  70  94 CALM      30.02
NOGALES        CLOUDY    68  64  87 CALM      30.09R
SIERRA VISTA   MOCLDY    68  63  82 SW3       30.16R
SAFFORD        CLOUDY    79  62  56 NW8       30.02R
$$

AZZ020-021-025-026-031-011400-
SOUTHWEST ARIZONA

CITY           SKY/WX    TMP DP  RH WIND       PRES   REMARKS
YUMA           TSTM      83  73  72 S7        29.84S
$$

CAZ031-033-041-043-047-048-061-011400-
SOUTHERN CALIFORNIA

CITY           SKY/WX    TMP DP  RH WIND       PRES   REMARKS
DOWNTOWN L.A.  MOCLDY    70  63  78 CALM      29.89S
L.A. AIRPORT   MOCLDY    68  63  84 NW6       29.89F
SAN DIEGO      CLOUDY    71  65  81 CALM      29.90R
BURBANK        CLOUDY    75  57  53 CALM      29.92R
ONTARIO        CLOUDY    73  57  57 N7        29.91R
RIVERSIDE      CLOUDY    71  64  78 E3        29.90S
PALM SPRINGS   CLOUDY    87  66  49 CALM      29.88R
EL CENTRO NAS  CLOUDY    85  67  54 NE5       29.84R
IMPERIAL       CLOUDY    85  68  56 E7        29.81R
BLYTHE         LGT RAIN  84  68  58 S8        29.87R
$$

NVZ020-UTZ003-011400-
SOUTHERN NEVADA-UTAH

CITY           SKY/WX    TMP DP  RH WIND       PRES   REMARKS
LAS VEGAS      NOT AVBL
SALT LAKE CITY MOCLDY    78  53  41 SE7       30.07R
$$

NMZ009-TXZ055-011400-
NEW MEXICO-WEST TEXAS

CITY           SKY/WX    TMP DP  RH WIND       PRES   REMARKS
ALBUQUERQUE    MOSUNNY   72  49  44 SE9       30.21F
EL PASO        MOSUNNY   72  51  47 N7        30.10R
$$


........................KEY........................
SKY/WX - SKY CONDITION/WEATHER
TMP    - TEMPERATURE IN FAHRENHEIT
DP     - DEW POINT IN FAHRENHEIT
RH     - RELATIVE HUMIDITY IN PERCENT
WIND   - DIRECTION AND SPEED IN MILES PER HOUR (MPH)
VRB    - VARIABLE WIND DIRECTION
PRES   - MEAN SEA LEVEL PRESSURE IN INCHES OF MERCURY
         F - FALLING PRESSURE   R - RISING PRESSURE
         S - STEADY PRESSURE
VSB    - VISIBILITY IN MILES
HX     - HEAT INDEX IN FAHRENHEIT
WCI    - WIND CHILL INDEX IN FAHRENHEIT
TC     - TEMPERATURE IN CELSIUS WHICH IS ALSO KNOWN AS
         TEMPERATURE IN CENTIGRADE
AFB    - AIR FORCE BASE
         LUKE AFB IS LUKE AIR FORCE BASE
         DAVIS-MONTHAN IS DAVIS-MONTHAN AIR FORCE BASE
NAS    - NAVAL AIR STATION
         EL CENTRO NAS IS EL CENTRO NAVAL AIR STATION
N/A    - NOT AVAILABLE




USA.gov is the U.S. government's official web portal to all federal, state and local government web resources and services.